Погода в Аньшане

Китай     30°26′35″N   106°31′00″E
темп.,
°C
ветер,
м/с
пор.,
м/с
влажн.,
%
обл.,
%
осадки,
мм/ч
давл.,
гПа
погр.,
м
11 мая, вт
вт1123:00+20с12909 0.2 100327
02:00+19всв229154 0.3 100334
05:00+19юз1187100 0.1 100429
08:00+19ююз2390100 0.6 1006201
11:00+19ююв2295100 8.7 1008235
14:00+19в229446 13.5 1006175
17:00+23всв337531 0.0 1005742
20:00+20св3691100 0.1 1005157
12 мая, ср
ср1223:00+19св349254 0.0 100775
02:00+19св339392 0.0 100659
05:00+19св2392100 0.0 100676
08:00+20св2389100 0.0 1006170
11:00+22всв2281100 0.2 1006341
14:00+23ю118099 0.3 1005288
17:00+25юз01695 0.0 1002498
20:00+23ссз11795 0.0 100312
13 мая, чт
чт1323:00+22св228180 0.0 100414
02:00+21св2284100 0.0 100335
05:00+20св2289100 0.0 100238
08:00+22св2282100 0.0 1004177
11:00+26юв1169100 0.1 1003686
14:00+27ююв4366100 1.1 1001970
17:00+23ююв2282100 1.1 999170
20:00+23всв11839 1.4 99913
14 мая, пт
пт1423:00+23св11845 0.0 99911
02:00+22св118781 0.1 99811
05:00+21юз1191100 0.6 99713
08:00+22ююв1190100 1.3 99879
11:00+22юв1289100 0.6 999148
14:00+28ююв236725 0.6 996987
17:00+29юз226198 1.6 9941168
20:00+26с337477 1.6 99536
15 мая, сб
сб1523:00+24ссв34833 2.9 99681
02:00+22ссз259395 8.3 996139
05:00+21ссз259594 13.1 996169
08:00+21ссз238889 15.3 999192
11:00+20ссз4584100 0.1 1000261
14:00+20ссз4686100 0.3 1000394
17:00+19ссз3683100 0.1 1001537
20:00+19ссз3683100 0.1 1002353